Forside
METAR-TAF:

METAR-TAF

Lufthavne :

Dodge County Airport

Juneau, Wisconsin, USA

Breddekreds: 43-25-36N, længdekreds: 088-42-12W, højde: 285 m

Aktuelle vejr

Denne rapport blev lavet for 24 minutter siden, kl. 12:15 UTC
Vind 5 kt fra nord
Temperatur 3°C
Fugtighed 75%
Tryk 1028 hPa
Sigt: 16.1 km
skyfri

METAR: KUNU 111215Z AUTO 36005KT 10SM CLR 03/M01 A3035 RMK AO2 T00311008

Tid: 07:39 (12:39 UTC)


TAF: fraværende

Vejrobservationer og prognoser fra mere end 4000 lufthavne (METAR og TAF).

De gule og røde prikker repræsenterer de meteorologiske stationer.

Flyt musen over at se navnet på stationen.

Så klik over at se vejr observationer og prognoser.

At skifte det kort: Klik på de grønne knapper med et sort kors for at zoome ind; på den grønne knap med en bindestreg for at zoome ud; eller på de grønne pile for tilstødende kort.


METAR-TAF: